Lakeview AWS, OR

3:03 PM PDT on May 26, 2017 (GMT -0700)
Lake County

Weather History for KLKV - January, 2013

Change the Weather History Date:

Monday, January 21, 2013

  Actual Average Record
Temperature  
Mean Temperature 6 °F -  
Max Temperature 26 °F 39 °F 58 °F (1981)
Min Temperature -13 °F 22 °F -22 °F (1937)
Degree Days  
Heating Degree Days 58    
Moisture  
Dew Point -24 °F    
Average Humidity 15    
Maximum Humidity 31    
Minimum Humidity 13    
Precipitation  
Precipitation 0.00 in - - ()
Sea Level Pressure  
Sea Level Pressure 30.28 in    
Wind  
Wind Speed 2 mph (NE)    
Max Wind Speed 7 mph    
Max Gust Speed -    
Visibility 10 miles    
Events      
Averages and records for this station are not official NWS values.
T = Trace of Precipitation, MM = Missing Value Source: NWS Daily Summary

Daily Weather History Graph

Daily Weather History Graph

Search for Another Location

Airport or City:

Trip Planner

Search our weather history database for the weather conditions in past years. The results will help you decide how hot, cold, wet, or windy it might be!

Date:

Astronomy

Jan. 21, 2013 Rise Set
Actual Time 7:23 AM PST 5:02 PM PST
Civil Twilight 6:53 AM PST 5:33 PM PST
Nautical Twilight 6:19 AM PST 6:07 PM PST
Astronomical Twilight 5:46 AM PST 6:40 PM PST
Moon 12:45 PM PST (1/21) 2:57 AM PST (1/21)
Length of Visible Light 10h 39m
Length of Day
9h 38m
Waxing Gibbous, 76% of the Moon is Illuminated
Jan 21
Waxing Gibbous
Jan 26
Full
Feb 3
Last Quarter
Feb 9
New
Feb 17
First Quarter

Hourly Weather History & Observations

Time (PST) Temp. Windchill Dew Point Humidity Pressure Visibility Wind Dir Wind Speed Gust Speed Precip Events Conditions
12:15 AM -5.8 °F - - N/A% 30.33 in 10.0 mi Calm Calm - N/A   Clear
12:35 AM -4.0 °F -12.4 °F - N/A% 30.32 in 10.0 mi NNW 3.5 mph - N/A   Clear
12:55 AM -4.0 °F -14.6 °F - N/A% 30.32 in 10.0 mi NNW 4.6 mph - N/A   Clear
1:15 AM -4.0 °F - - N/A% 30.33 in 10.0 mi Calm Calm - N/A   Clear
1:35 AM -7.6 °F -16.5 °F - N/A% 30.33 in 10.0 mi NE 3.5 mph - N/A   Clear
1:55 AM -5.8 °F -18.4 °F - N/A% 30.33 in 10.0 mi North 5.8 mph - N/A   Clear
2:15 AM -5.8 °F -19.9 °F - N/A% 30.33 in 10.0 mi NNW 6.9 mph - N/A   Clear
2:35 AM -7.6 °F -20.6 °F - N/A% 30.33 in 10.0 mi NW 5.8 mph - N/A   Clear
2:55 AM -7.6 °F -16.5 °F - N/A% 30.33 in 10.0 mi SSE 3.5 mph - N/A   Clear
3:15 AM -11.2 °F - - N/A% 30.32 in 10.0 mi Calm Calm - N/A   Clear
3:35 AM -9.4 °F - - N/A% 30.32 in 10.0 mi Calm Calm - N/A   Clear
3:55 AM -9.4 °F - - N/A% 30.31 in 10.0 mi Calm Calm - N/A   Clear
4:15 AM -9.4 °F - - N/A% 30.31 in 10.0 mi Calm Calm - N/A   Clear
4:35 AM -9.4 °F - - N/A% 30.31 in 10.0 mi Calm Calm - N/A   Clear
4:55 AM -11.2 °F - - N/A% 30.31 in 10.0 mi Calm Calm - N/A   Clear
5:15 AM -11.2 °F - - N/A% 30.31 in 10.0 mi Calm Calm - N/A   Clear
5:35 AM -11.2 °F - - N/A% 30.31 in 10.0 mi Calm Calm - N/A   Clear
5:55 AM -9.4 °F - - N/A% 30.30 in 10.0 mi Calm Calm - N/A   Clear
6:15 AM -11.2 °F - - N/A% 30.30 in 10.0 mi Calm Calm - N/A   Clear
6:35 AM -9.4 °F - - N/A% 30.30 in 10.0 mi Calm Calm - N/A   Clear
6:55 AM -13.0 °F - - N/A% 30.29 in 10.0 mi Calm Calm - N/A   Clear
7:15 AM -11.2 °F -20.6 °F - N/A% 30.30 in 10.0 mi WNW 3.5 mph - N/A   Clear
7:35 AM -9.4 °F - - N/A% 30.30 in 10.0 mi Calm Calm - N/A   Clear
7:55 AM -13.0 °F - - N/A% 30.31 in 10.0 mi Calm Calm - N/A   Clear
8:15 AM -5.8 °F - - N/A% 30.31 in 10.0 mi Calm Calm - N/A   Clear
8:35 AM -5.8 °F -14.5 °F - N/A% 30.32 in 10.0 mi East 3.5 mph - N/A   Clear
8:55 AM -2.2 °F -10.4 °F - N/A% 30.33 in 10.0 mi ESE 3.5 mph - N/A   Clear
9:15 AM -2.2 °F - - N/A% 30.33 in 10.0 mi Calm Calm - N/A   Clear
9:35 AM 5.0 °F - - N/A% 30.33 in 10.0 mi Calm Calm - N/A   Clear
9:55 AM 6.8 °F -2.0 °F -31.0 °F 16% 30.33 in 10.0 mi NNE 4.6 mph - N/A   Clear
10:15 AM 8.6 °F - -27.4 °F 18% 30.33 in 10.0 mi Calm Calm - N/A   Clear
10:35 AM 8.6 °F - -31.0 °F 15% 30.33 in 10.0 mi Calm Calm - N/A   Clear
10:55 AM 15.8 °F 10.2 °F -25.6 °F 14% 30.33 in 10.0 mi East 3.5 mph - N/A   Clear
11:15 AM 10.4 °F - -29.2 °F 15% 30.32 in 10.0 mi Calm Calm - N/A   Clear
11:35 AM 21.2 °F - -22.0 °F 14% 30.31 in 10.0 mi Calm Calm - N/A   Clear
11:55 AM 21.2 °F - -22.0 °F 14% 30.30 in 10.0 mi Calm Calm - N/A   Clear
12:15 PM 24.8 °F - -20.2 °F 13% 30.29 in 10.0 mi Calm Calm - N/A   Clear
12:35 PM 17.6 °F 12.3 °F -23.8 °F 15% 30.28 in 10.0 mi SSE 3.5 mph - N/A   Clear
12:55 PM 17.6 °F 12.3 °F -23.8 °F 15% 30.27 in 10.0 mi SE 3.5 mph - N/A   Clear
1:15 PM 19.4 °F 14.3 °F -23.8 °F 14% 30.26 in 10.0 mi SE 3.5 mph - N/A   Clear
1:35 PM 19.4 °F 14.3 °F -22.0 °F 15% 30.25 in 10.0 mi SSE 3.5 mph - N/A   Clear
1:55 PM 24.8 °F - -20.2 °F 13% 30.25 in 10.0 mi Calm Calm - N/A   Clear
2:15 PM 26.6 °F - -18.4 °F 13% 30.24 in 10.0 mi Calm Calm - N/A   Clear
2:35 PM 24.8 °F 20.5 °F -18.4 °F 14% 30.25 in 10.0 mi South 3.5 mph - N/A   Clear
2:55 PM 19.4 °F 14.3 °F -20.2 °F 16% 30.25 in 10.0 mi SSE 3.5 mph - N/A   Clear
3:15 PM 21.2 °F 16.4 °F -22.0 °F 14% 30.25 in 10.0 mi SE 3.5 mph - N/A   Clear
3:35 PM 23.0 °F 18.4 °F -20.2 °F 14% 30.25 in 10.0 mi South 3.5 mph - N/A   Clear
3:55 PM 24.8 °F - -20.2 °F 13% 30.24 in 10.0 mi Calm Calm - N/A   Clear
4:15 PM 21.2 °F - -22.0 °F 14% 30.24 in 10.0 mi Calm Calm - N/A   Clear
4:55 PM 14.0 °F 6.5 °F -27.4 °F 14% 30.23 in 10.0 mi North 4.6 mph - N/A   Clear
5:15 PM 15.8 °F 7.2 °F -25.6 °F 14% 30.23 in 10.0 mi NNW 5.8 mph - N/A   Clear
5:35 PM 12.2 °F 6.1 °F -27.4 °F 15% 30.23 in 10.0 mi NNW 3.5 mph - N/A   Clear
5:55 PM 8.6 °F 2.0 °F -29.2 °F 16% 30.23 in 10.0 mi North 3.5 mph - N/A   Clear
6:15 PM 8.6 °F 2.0 °F -31.0 °F 15% 30.23 in 10.0 mi North 3.5 mph - N/A   Clear
6:35 PM 8.6 °F 2.0 °F -32.8 °F 14% 30.24 in 10.0 mi NNW 3.5 mph - N/A   Clear
6:55 PM 6.8 °F - -18.4 °F 31% 30.23 in 10.0 mi Calm Calm - N/A   Clear
7:15 PM 6.8 °F - - N/A% 30.23 in 10.0 mi Calm Calm - N/A   Clear
7:35 PM 1.4 °F - - N/A% 30.24 in 10.0 mi Calm Calm - N/A   Clear
7:55 PM 1.4 °F -6.2 °F - N/A% 30.24 in 10.0 mi SE 3.5 mph - N/A   Clear
8:15 PM 3.2 °F -4.2 °F - N/A% 30.23 in 10.0 mi ESE 3.5 mph - N/A   Clear
8:35 PM 1.4 °F -6.2 °F - N/A% 30.24 in 10.0 mi SW 3.5 mph - N/A   Clear
8:55 PM 3.2 °F -7.8 °F - N/A% 30.23 in 10.0 mi NNW 5.8 mph - N/A   Clear
9:15 PM -0.4 °F - - N/A% 30.23 in 10.0 mi Calm Calm - N/A   Clear
9:35 PM 1.4 °F - - N/A% 30.23 in 10.0 mi Calm Calm - N/A   Clear
9:55 PM 1.4 °F -6.2 °F - N/A% 30.24 in 10.0 mi East 3.5 mph - N/A   Clear
10:15 PM -0.4 °F - - N/A% 30.23 in 10.0 mi Calm Calm - N/A   Clear
10:35 PM 1.4 °F - - N/A% 30.24 in 10.0 mi Calm Calm - N/A   Clear
11:15 PM -0.4 °F - - N/A% 30.24 in 10.0 mi Calm Calm - N/A   Clear
11:35 PM -0.4 °F - - N/A% 30.24 in 10.0 mi Calm Calm - N/A   Clear
11:55 PM -0.4 °F - - N/A% 30.23 in 10.0 mi Calm Calm - N/A   Clear